Road Running Flyers for Upcoming Events Advertising Contact Us Event Calendar Home
The Deloitte Challenge Pretoria Marathon 2018

Complete results

Results for the Deloitte Pretoria Walk (AGN) 10km race - 2017-02-26

228 finishers

Position Initials Surname Sex Age Club Finish Time
1SNdebeleM23Tuks00:43:21
2LShangeM26Boxer00:44:22
3WSnymanM31Hpc00:46:22
4CLeteleM42Temp00:56:46
5TPuleM20Tuks00:57:56
6SSteenkampF56Vtm00:59:05
7CKlinkF21Tuks00:59:20
8JAppelM46Gnma01:00:02
9MSerdynF45Pmwc01:00:04
10RViljoenF38Tuks01:00:14
11RWillemseF35Aurecon01:00:38
12SRailoM56Acrw01:01:32
13CCallaghanM63Love Running01:01:33
14JWillemseM60Irene01:02:19
15WKoekemoerF66Love Running01:05:41
16CScheepersF57Pmwc01:06:14
17CelesteF51Love Running01:07:03
18GVan Den RaadM70Irene01:07:23
19EMeyerF70Irene01:07:23
20SKeyterF55Rwfl01:08:32
21JSelokelaM31Pmwc01:08:56
22LWillemseF62Irene01:12:12
23CVan RensburgF46Rwfl01:12:16
24PVan HeerdenM57Pmwc01:12:57
25MBezuidenhoutF18Gnma01:12:58
26KSchoemanM67Ppmk01:14:54
27SSeligmanF53Vitality01:15:28
28MKostelijkF52Magnolia01:15:35
29MFourieF49Irene01:15:38
30JSetshediM62Gnma01:15:42
31MBosmanF49Vtm01:18:02
32AKelfkensF46Rwfl Garsfontein01:19:44
33LKotzeF69Irene01:19:51
34MStraussF42Pmwc01:20:48
35SBothaF40Pmwc01:20:49
36JPretorius58Rwfl01:21:43
37SDe RuijterF73Eskom01:21:57
38DZetisbyF47Vitality01:22:00
39SVan NiekerkF48Rwfl01:22:11
40OO'brienF46Rwfl01:22:13
41CGarisch63Rwfl01:23:10
42Unknown01:25:39
43HHulmanMAkasia01:25:42
44PKelleyM72Rwfl01:27:09
45GBloemF40Nedbank01:27:10
46NDe LangenM62Acrw01:28:05
47HanlieF54Temp01:28:51
48SVorsterF12Temp01:28:53
49GPriceM71Temp01:28:54
50JMthembuFTemp01:29:03
51LNagel33Temp01:29:07
52RUysM35Temp01:29:48
53COldewageF27Temp01:29:50
54KMunroM63Vitality01:30:15
55Unknown01:30:17
56VMatshabaF49Sabs Striders01:30:35
57SBlignautF49Magnolia01:31:01
58Unknown01:31:14
59GPritchardM53Temp01:31:19
60JDe WaalM62Temp01:31:22
61Unknown01:31:24
62KKhaoleF57Temp01:31:29
63FDe RuijterM80Eskom01:31:36
64MBradfieldF58Temp01:31:37
65KSteenkampM54Resbank01:31:38
66LSmitF50Resbank01:31:45
67DBonnerF57Rwfl01:32:00
68PMeyerF41Rwfl01:32:03
69MSehlapeloF55Rwfl01:32:05
70Unknown01:32:39
71EBotesF60Irene01:32:42
72LNkweF43Love Running01:32:43
73DArkellF57Irene01:32:44
74MJoubertF25Temp01:33:05
75BJoubertM57Deloitte01:33:06
76CHeynsM47Chappies01:33:40
77ABrinkF49Running Inn01:33:46
78RWentzelF29Vitality01:33:47
79WSwart61Irene01:33:59
80RBothaF69Rwfl01:34:32
81LMccabeF31Sunninghill01:34:40
82NMtshaFTemp01:34:42
83JHechterF51Temp01:34:51
84RVan DijkF57Resbank01:35:00
85MDookaFUhuru01:35:01
86GCarterM66Irene01:35:03
87SHarmseF48Nedbank01:35:41
88CVan NiekerkF48Pmk01:36:00
89CBrinkM48Running Inn01:36:11
90ENeethlingF48Rwfl01:36:12
91NStanderF36Temp01:36:18
92MPretoriusM44Vitality01:36:36
93JDaviesM69Bmw01:36:43
94HKaltwasserM70Affies01:36:53
95LBemelmanF62Rwfl01:36:57
96Unknown01:37:09
97SSitholeF28Temp01:38:03
98NColin50Temp01:38:34
99DVogtmannsbergerF47Temp01:38:43
100RobertM50Temp01:39:05
101DSteynM40Temp01:39:05
102JClementsF71Gnma01:39:30
103Unknown01:39:31
104Unknown01:39:37
105Unknown01:39:42
106CHanekomF48Pmwc01:39:47
107CatherineFTemp01:40:01
108Unknown01:40:02
109Unknown01:40:07
110Unknown01:40:09
111Unknown01:40:14
112ESpinnlerM62Rwfl Krugersdorp01:40:17
113ASpinnlerF64Rwfl Krugersdorp01:40:18
114Unknown01:40:26
115KMorobaneF33Temp01:40:30
116LTroseeFTemp01:40:38
117HilletjeFTemp01:40:52
118GPretoriusM24Temp01:40:54
119KholofeloF51Temp01:41:01
120CBoswellFSolidariteit01:41:21
121JBotesM80Temp01:41:42
122JBotesM53Temp01:42:21
123JVan HeerdenF21Temp01:42:48
124SVan Der VyverF20Temp01:42:50
125PMabulaM64Atteridgeville01:43:03
126PoaliF39Pmk01:43:04
127AVersterF48Temp01:44:34
128WLamF58Love Running01:44:35
129CSungF59Love Running01:45:22
130AKushnerM74Temp01:45:31
131Unknown01:45:32
132TBothaF53Temp01:45:46
133EVan Der PollF48Temp01:45:48
134ThataFTemp01:45:53
135ECronjeM16Rwfl01:46:24
136PCronjeM56Rwfl01:46:26
137MTlhoaeleMVitality01:47:16
138Unknown01:47:49
139SFerreiraF53Temp01:47:56
140KVermaakF51Temp01:47:59
141Unknown01:48:11
142LWaltersF36Temp01:48:15
143SCronjeF53Rwfl01:48:16
144MoratweF42Slyza01:48:17
145PLaingF48Temp01:48:21
146RLaingM78Temp01:48:24
147HDu ToitFRwfl01:48:34
148JMurrayF40Rwfl01:48:37
149RMavasM38Temp01:48:38
150BDuvenhageM41Temp01:48:44
151MHeynsF47Chappies01:48:52
152NHeynsF22Chappies01:48:52
153MDormehlF30Temp01:49:32
154MRautenbachF27Temp01:49:32
155SVanmaliF63Temp01:49:38
156DVanmaliM41Temp01:49:39
157GCainM46Temp01:49:44
158Unknown01:49:46
159MOlivierF34Temp01:49:48
160ESwanepoelF47Rwfl01:50:01
161LSelloF52Temp01:50:06
162Unknown01:50:20
163Unknown01:50:25
164Unknown01:50:26
165Unknown01:50:27
166SBijouxF42Temp01:50:34
167DPlattsF74Running Inn01:50:35
168MRudmanF40Temp01:50:54
169BUmoetokF41Vitality01:50:58
170GBadenhorstF60Solidariteit01:51:09
171MPretoriusM84Solidariteit01:51:29
172DMaphathaM63Temp01:51:30
173LMasokaM63Dirco01:51:38
174Unknown01:51:54
175Unknown01:53:00
176Unknown01:53:02
177Unknown01:53:04
178Unknown01:53:05
179Unknown01:53:07
180ENikitasMTemp01:53:08
181YDietzF77Rwfl01:53:23
182Unknown01:53:29
183Unknown01:53:30
184Unknown01:53:35
185TshitsadiFTemp01:53:50
186LeratoF37Toyota01:53:53
187KMosopaMTemp01:53:54
188EViljoenF50Sars01:53:55
189HBhulaF42Hmk01:53:56
190Unknown01:54:12
191SMadingwaM41Prasa01:54:14
192NhlakaniphoTemp01:54:21
193MMistryF27Temp01:54:32
194KMistryF25Temp01:54:33
195DNikitasTemp01:54:44
196SNaudeF60Bestmed01:55:09
197MMarenuwaF25Temp01:56:08
198SNdalaF29Temp01:56:10
199JNgcangulaFTemp01:56:10
200SMeleMTemp01:56:19

Home | Next


Race Results
RunningSticker
Tips
The Ultimate Human Race